Valparaiso, IN

2:43 AM CDT on May 25, 2018 (GMT -0500)
Porter County Municipal

Weather History for KVPZ - March, 2013

Change the Weather History Date:

Friday, March 29, 2013

  Actual Average Record
Temperature  
Mean Temperature 41 °F 43 °F  
Max Temperature 54 °F 52 °F 82 °F (1986)
Min Temperature 28 °F 33 °F 13 °F (1915)
Degree Days  
Heating Degree Days 24 22  
Month to date heating degree days 940 801  
Since 1 July heating degree days 5331 5533  
Cooling Degree Days 0 0  
Month to date cooling degree days 0 0  
Year to date cooling degree days 0 0  
Moisture  
Dew Point 21 °F    
Average Humidity 50    
Maximum Humidity 82    
Minimum Humidity 25    
Precipitation  
Precipitation 0.00 in 0.09 in 0.94 in (1973)
Month to date precipitation 0.54 2.30  
Year to date precipitation 4.09 5.47  
Sea Level Pressure  
Sea Level Pressure 30.29 in    
Wind  
Wind Speed 3 mph (NNE)    
Max Wind Speed 12 mph    
Max Gust Speed 15 mph    
Visibility 10 miles    
Events      
T = Trace of Precipitation, MM = Missing Value Source: NWS Daily Summary

Daily Weather History Graph

Daily Weather History Graph

Search for Another Location

Airport or City:

Astronomy

Mar. 29, 2013 Rise Set
Actual Time 6:35 AM CDT 7:10 PM CDT
Civil Twilight 6:07 AM CDT 7:38 PM CDT
Nautical Twilight 5:35 AM CDT 8:11 PM CDT
Astronomical Twilight 5:01 AM CDT 8:45 PM CDT
Moon 10:12 PM CDT (3/29) 7:42 AM CDT (3/29)
Length of Visible Light 13h 30m
Length of Day
12h 34m
Waning Gibbous, 93% of the Moon is Illuminated
Mar 29
Waning Gibbous
Apr 2
Last Quarter
Apr 10
New
Apr 18
First Quarter
Apr 25
Full

Hourly Weather History & Observations

Time (CDT) Temp. Windchill Dew Point Humidity Pressure Visibility Wind Dir Wind Speed Gust Speed Precip Events Conditions
12:53 AM 30.9 °F - 21.0 °F 67% 30.33 in 10.0 mi Calm Calm - N/A   Scattered Clouds
1:53 AM 28.9 °F 25.2 °F 21.9 °F 75% 30.33 in 10.0 mi SSW 3.5 mph - N/A   Mostly Cloudy
2:53 AM 30.9 °F - 26.1 °F 82% 30.32 in 10.0 mi Calm Calm - N/A   Overcast
3:53 AM 32.0 °F - 25.0 °F 75% 30.31 in 10.0 mi Calm Calm - N/A   Overcast
4:53 AM 30.0 °F - 23.0 °F 75% 30.30 in 10.0 mi Calm Calm - N/A   Mostly Cloudy
5:53 AM 28.9 °F - 24.1 °F 82% 30.31 in 10.0 mi Calm Calm - N/A   Mostly Cloudy
6:53 AM 28.9 °F - 23.0 °F 78% 30.32 in 10.0 mi Calm Calm - N/A   Clear
7:53 AM 33.1 °F - 27.0 °F 78% 30.33 in 10.0 mi Calm Calm - N/A   Clear
8:53 AM 44.1 °F - 24.1 °F 45% 30.34 in 10.0 mi Calm Calm - N/A   Clear
9:53 AM 46.0 °F 44.8 °F 19.9 °F 35% 30.34 in 10.0 mi Variable 3.5 mph - N/A   Overcast
10:53 AM 48.9 °F - 18.0 °F 29% 30.34 in 10.0 mi Variable 3.5 mph - N/A   Mostly Cloudy
11:53 AM 50.0 °F - 18.0 °F 28% 30.32 in 10.0 mi Variable 3.5 mph - N/A   Overcast
12:53 PM 52.0 °F - 19.9 °F 28% 30.30 in 10.0 mi NW 6.9 mph - N/A   Clear
1:53 PM 53.1 °F - 21.0 °F 29% 30.29 in 10.0 mi NNW 8.1 mph - N/A   Clear
2:53 PM 52.0 °F - 19.0 °F 27% 30.27 in 10.0 mi North 8.1 mph - N/A   Clear
3:53 PM 54.0 °F - 19.0 °F 25% 30.25 in 10.0 mi Variable 4.6 mph - N/A   Clear
4:53 PM 52.0 °F - 19.9 °F 28% 30.24 in 10.0 mi NE 9.2 mph - N/A   Clear
5:53 PM 50.0 °F - 19.9 °F 31% 30.25 in 10.0 mi NNE 6.9 mph - N/A   Clear
6:53 PM 44.1 °F 40.8 °F 21.0 °F 40% 30.25 in 10.0 mi North 5.8 mph - N/A   Clear
7:53 PM 39.0 °F 36.8 °F 19.0 °F 45% 30.26 in 10.0 mi NE 3.5 mph - N/A   Clear
8:53 PM 37.9 °F - 19.0 °F 47% 30.26 in 10.0 mi Calm Calm - N/A   Clear
9:53 PM 36.0 °F 33.3 °F 18.0 °F 48% 30.27 in 10.0 mi NE 3.5 mph - N/A   Clear
10:53 PM 36.0 °F - 17.1 °F 46% 30.27 in 10.0 mi Calm Calm - N/A   Clear
11:53 PM 35.1 °F - 17.1 °F 48% 30.26 in 10.0 mi Calm Calm - N/A   Clear